When you browse on this site, cookies collect data to enhance your experience and personalize the content and advertising you see.
Visit our Privacy Policy to learn more. By continuing to use the site, you agree to this use of cookies and data.
  • In Norway
  • List of Countries
  • For 7 days
  • Water Temperature
  • Satellite Maps
  • Weather Map
  • Weather Widgets
  • user-avatar
    Login

    Hourly Weather Perth

    Today, 18 December, Tuesday

    Time Temperature Precipitation Wind Pressure Humidity
    00:00 +20°C° 0 mm 5 mps 760 mmHg 61%
    01:00 +19°C° 0 mm 5 mps 760 mmHg 64%
    02:00 +18°C° 0 mm 4 mps 760 mmHg 69%
    03:00 +17°C° 0 mm 4 mps 760 mmHg 72%
    04:00 +17°C° 0 mm 3 mps 760 mmHg 75%
    05:00 +16°C° 0 mm 3 mps 760 mmHg 78%
    06:00 +18°C° 0 mm 3 mps 761 mmHg 71%
    07:00 +19°C° 0 mm 4 mps 761 mmHg 65%
    08:00 +21°C° 0 mm 3 mps 762 mmHg 57%
    09:00 +22°C° 0 mm 3 mps 761 mmHg 51%
    10:00 +25°C° 0 mm 3 mps 761 mmHg 44%
    11:00 +27°C° 0 mm 3 mps 761 mmHg 38%
    12:00 +28°C° 0 mm 4 mps 761 mmHg 36%
    13:00 +29°C° 0 mm 4 mps 761 mmHg 34%
    14:00 +29°C° 0 mm 5 mps 761 mmHg 37%
    15:00 +29°C° 0 mm 5 mps 761 mmHg 36%
    16:00 +29°C° 0 mm 5 mps 760 mmHg 35%
    17:00 +29°C° 0 mm 5 mps 760 mmHg 35%
    18:00 +27°C° 0 mm 5 mps 761 mmHg 41%
    19:00 +25°C° 0 mm 5 mps 761 mmHg 46%
    20:00 +22°C° 0 mm 4 mps 761 mmHg 52%
    21:00 +21°C° 0 mm 4 mps 761 mmHg 53%
    22:00 +21°C° 0 mm 4 mps 761 mmHg 54%
    23:00 +21°C° 0 mm 4 mps 761 mmHg 55%

    Tomorrow, 19 December, Wednesday

    Time Temperature Precipitation Wind Pressure Humidity
    00:00 +20°C° 0 mm 4 mps 762 mmHg 57%
    01:00 +20°C° 0 mm 4 mps 762 mmHg 58%
    02:00 +20°C° 0 mm 4 mps 762 mmHg 59%
    03:00 +19°C° 0 mm 4 mps 762 mmHg 62%
    04:00 +19°C° 0 mm 5 mps 762 mmHg 65%
    05:00 +17°C° 0 mm 5 mps 762 mmHg 68%
    06:00 +19°C° 0 mm 5 mps 762 mmHg 63%
    07:00 +21°C° 0 mm 4 mps 763 mmHg 57%
    08:00 +22°C° 0 mm 4 mps 763 mmHg 52%
    09:00 +25°C° 0 mm 4 mps 763 mmHg 44%
    10:00 +27°C° 0 mm 4 mps 763 mmHg 35%
    11:00 +30°C° 0 mm 3 mps 762 mmHg 27%
    12:00 +32°C° 0 mm 4 mps 762 mmHg 26%
    13:00 +32°C° 0 mm 4 mps 761 mmHg 25%
    14:00 +33°C° 0 mm 5 mps 761 mmHg 24%
    15:00 +32°C° 0 mm 5 mps 761 mmHg 26%
    16:00 +32°C° 0 mm 6 mps 761 mmHg 27%
    17:00 +30°C° 0 mm 6 mps 760 mmHg 29%
    18:00 +28°C° 0 mm 6 mps 761 mmHg 35%
    19:00 +26°C° 0 mm 6 mps 761 mmHg 41%
    20:00 +23°C° 0 mm 6 mps 761 mmHg 48%
    21:00 +22°C° 0 mm 5 mps 762 mmHg 48%
    22:00 +22°C° 0 mm 5 mps 762 mmHg 48%
    23:00 +21°C° 0 mm 5 mps 762 mmHg 48%

    Day after tomorrow, 20 December, Thursday

    Time Temperature Precipitation Wind Pressure Humidity
    00:00 +21°C° 0 mm 5 mps 762 mmHg 47%
    01:00 +21°C° 0 mm 5 mps 761 mmHg 45%
    02:00 +21°C° 0 mm 5 mps 761 mmHg 44%
    03:00 +21°C° 0 mm 5 mps 761 mmHg 47%
    04:00 +20°C° 0 mm 5 mps 761 mmHg 49%
    05:00 +20°C° 0 mm 5 mps 761 mmHg 52%
    06:00 +21°C° 0 mm 5 mps 762 mmHg 49%
    07:00 +23°C° 0 mm 5 mps 762 mmHg 46%
    08:00 +25°C° 0 mm 5 mps 762 mmHg 42%
    09:00 +28°C° 0 mm 4 mps 762 mmHg 36%
    10:00 +30°C° 0 mm 4 mps 762 mmHg 31%
    11:00 +34°C° 0 mm 4 mps 761 mmHg 25%
    12:00 +35°C° 0 mm 4 mps 761 mmHg 23%
    13:00 +36°C° 0 mm 4 mps 760 mmHg 20%
    14:00 +37°C° 0 mm 4 mps 760 mmHg 18%
    15:00 +37°C° 0 mm 5 mps 759 mmHg 19%
    16:00 +36°C° 0 mm 5 mps 759 mmHg 20%
    17:00 +36°C° 0 mm 6 mps 759 mmHg 20%
    18:00 +34°C° 0 mm 6 mps 759 mmHg 23%
    19:00 +32°C° 0 mm 5 mps 759 mmHg 25%
    20:00 +29°C° 0 mm 5 mps 759 mmHg 28%
    21:00 +28°C° 0 mm 6 mps 759 mmHg 30%
    22:00 +28°C° 0 mm 7 mps 760 mmHg 32%
    23:00 +27°C° 0 mm 8 mps 760 mmHg 34%

    21 December, Friday

    Time Temperature Precipitation Wind Pressure Humidity
    00:00 +26°C° 0 mm 8 mps 760 mmHg 39%
    01:00 +24°C° 0 mm 8 mps 760 mmHg 43%
    02:00 +22°C° 0 mm 7 mps 760 mmHg 48%
    03:00 +22°C° 0 mm 7 mps 760 mmHg 48%
    04:00 +22°C° 0 mm 7 mps 760 mmHg 48%
    05:00 +21°C° 0 mm 7 mps 760 mmHg 48%
    06:00 +23°C° 0 mm 7 mps 760 mmHg 44%
    07:00 +24°C° 0 mm 6 mps 760 mmHg 41%
    08:00 +27°C° 0 mm 6 mps 761 mmHg 37%
    09:00 +30°C° 0 mm 5 mps 760 mmHg 31%
    10:00 +34°C° 0 mm 5 mps 760 mmHg 26%
    11:00 +37°C° 0 mm 4 mps 760 mmHg 20%
    12:00 +38°C° 0 mm 4 mps 759 mmHg 18%
    13:00 +40°C° 0 mm 3 mps 759 mmHg 16%
    14:00 +42°C° 0 mm 3 mps 758 mmHg 14%
    15:00 +42°C° 0 mm 3 mps 758 mmHg 15%
    16:00 +42°C° 0 mm 4 mps 757 mmHg 15%
    17:00 +41°C° 0 mm 4 mps 757 mmHg 15%
    18:00 +38°C° 0 mm 4 mps 757 mmHg 18%
    19:00 +36°C° 0 mm 4 mps 757 mmHg 20%
    20:00 +34°C° 0 mm 4 mps 757 mmHg 22%
    21:00 +33°C° 0 mm 4 mps 758 mmHg 22%
    22:00 +33°C° 0 mm 4 mps 758 mmHg 22%
    23:00 +32°C° 0 mm 4 mps 758 mmHg 22%

    22 December, Saturday

    Time Temperature Precipitation Wind Pressure Humidity
    00:00 +32°C° 0 mm 4 mps 758 mmHg 21%
    01:00 +32°C° 0 mm 4 mps 758 mmHg 20%
    02:00 +32°C° 0 mm 5 mps 757 mmHg 19%
    03:00 +32°C° 0 mm 5 mps 757 mmHg 20%
    04:00 +32°C° 0 mm 5 mps 757 mmHg 20%
    05:00 +32°C° 0 mm 5 mps 757 mmHg 21%
    06:00 +33°C° 0 mm 5 mps 758 mmHg 20%
    07:00 +34°C° 0 mm 6 mps 758 mmHg 19%
    08:00 +35°C° 0 mm 6 mps 759 mmHg 18%
    09:00 +38°C° 0 mm 6 mps 758 mmHg 18%
    10:00 +40°C° 0 mm 6 mps 758 mmHg 18%
    11:00 +41°C° 0 mm 5 mps 758 mmHg 17%
    12:00 +42°C° 0 mm 5 mps 758 mmHg 18%
    13:00 +42°C° 0 mm 5 mps 757 mmHg 19%
    14:00 +42°C° 0 mm 5 mps 757 mmHg 20%
    15:00 +40°C° 0.2 mm 5 mps 757 mmHg 25%
    16:00 +37°C° 0.2 mm 4 mps 757 mmHg 29%
    17:00 +35°C° 0.2 mm 4 mps 757 mmHg 34%
    18:00 +33°C° 0.1 mm 3 mps 757 mmHg 38%
    19:00 +31°C° 0.1 mm 3 mps 758 mmHg 41%
    20:00 +29°C° 0.1 mm 2 mps 758 mmHg 45%
    21:00 +28°C° 0 mm 2 mps 759 mmHg 47%
    22:00 +27°C° 0 mm 2 mps 759 mmHg 48%
    23:00 +27°C° 0 mm 1 mps 759 mmHg 50%

    23 December, Sunday

    Time Temperature Precipitation Wind Pressure Humidity
    00:00 +26°C° 0 mm 1 mps 759 mmHg 51%
    01:00 +26°C° 0 mm 1 mps 758 mmHg 53%
    02:00 +25°C° 0 mm 1 mps 758 mmHg 54%
    03:00 +25°C° 0 mm 1 mps 758 mmHg 53%
    04:00 +25°C° 0 mm 1 mps 758 mmHg 52%
    05:00 +23°C° 0 mm 0 mps 758 mmHg 51%
    06:00 +27°C° 0 mm 1 mps 758 mmHg 44%
    07:00 +30°C° 0 mm 1 mps 759 mmHg 37%
    08:00 +33°C° 0 mm 1 mps 759 mmHg 30%
    09:00 +35°C° 0 mm 2 mps 759 mmHg 28%
    10:00 +37°C° 0 mm 3 mps 759 mmHg 27%
    11:00 +38°C° 0 mm 4 mps 759 mmHg 25%
    12:00 +38°C° 0 mm 4 mps 758 mmHg 26%
    13:00 +39°C° 0 mm 5 mps 758 mmHg 26%
    14:00 +37°C° 0 mm 5 mps 757 mmHg 27%
    15:00 +36°C° 0 mm 5 mps 757 mmHg 29%
    16:00 +36°C° 0 mm 5 mps 757 mmHg 30%
    17:00 +35°C° 0 mm 5 mps 757 mmHg 31%
    18:00 +33°C° 0 mm 5 mps 757 mmHg 35%
    19:00 +30°C° 0 mm 4 mps 758 mmHg 38%
    20:00 +28°C° 0 mm 3 mps 758 mmHg 41%
    21:00 +28°C° 0 mm 3 mps 759 mmHg 41%
    22:00 +27°C° 0 mm 3 mps 759 mmHg 41%
    23:00 +27°C° 0 mm 3 mps 759 mmHg 42%
    Show more